Hourly Data Report for October 27, 2014

All times are specified in Local Standard Time (LST). Add 1 hour to adjust for Daylight Saving Time where and when it is observed.

CHARLOTTETOWN A
PRINCE EDWARD ISLAND

46°17'21.000" N
63°07'09.000" W
48.50 m
8300301
71706
YYG

Download Data

Hourly Data (October 2014)
Hourly Data Report for October 27, 2014
Temp Definition
°C
Dew Point Temp Definition
°C
Rel Hum Definition
%
Wind Dir Definition
10's deg

Wind Spd Definition
km/h
Visibility Definition
km
Stn Press Definition
kPa
Hmdx Definition


Wind Chill Definition


Weather Definition


TIME
00:00 Legend Double Dagger 8.3 7.6 95 34 21 9.7 98.45     Rain Showers,Fog
01:00 Legend Double Dagger 8.4 7.8 96 33 18 9.7 98.43     Rain Showers,Fog
02:00 Legend Double Dagger 8.3 7.6 95 31 22 19.3 98.44     Rain Showers
03:00 Legend Double Dagger 8.0 7.3 95 30 15 12.9 98.44     Rain Showers
04:00 Legend Double Dagger 7.8 6.6 92 30 19 19.3 98.47     Rain Showers
05:00 Legend Double Dagger 7.5 6.5 93 30 23 16.1 98.51     Rain Showers
06:00 Legend Double Dagger 7.3 6.1 92 30 25 19.3 98.56     Rain Showers
07:00 Legend Double Dagger 7.2 5.8 91 28 26 24.1 98.62     Rain Showers
08:00 Legend Double Dagger 7.0 5.6 91 28 23 24.1 98.73     Rain Showers
09:00 Legend Double Dagger 6.6 4.9 89 28 28 24.1 98.79     Rain Showers
10:00 Legend Double Dagger 6.3 4.3 87 28 29 24.1 98.85     Rain Showers
11:00 Legend Double Dagger 6.4 4.7 89 28 25 24.1 98.88     Rain Showers
12:00 Legend Double Dagger 6.8 4.5 85 29 29 24.1 98.87     LegendNANA
13:00 Legend Double Dagger 6.2 4.9 91 29 26 8.1 98.93     Rain Showers,Fog
14:00 Legend Double Dagger 6.4 5.1 91 29 25 16.1 99.00     Rain Showers
15:00 Legend Double Dagger 6.3 4.6 89 29 31 19.3 99.07     Rain Showers
16:00 Legend Double Dagger 6.4 4.7 89 30 24 16.1 99.16     Rain Showers
17:00 Legend Double Dagger 6.0 4.7 91 30 26 19.3 99.28     Rain Showers
18:00 Legend Double Dagger 6.1 4.6 90 31 25 19.3 99.38     Rain Showers
19:00 Legend Double Dagger 6.1 4.1 87 32 25 19.3 99.45     Rain Showers
20:00 Legend Double Dagger 6.3 3.6 83 32 26 19.3 99.49     Rain Showers
21:00 Legend Double Dagger 6.6 2.5 75 31 26 24.1 99.59     LegendNANA
22:00 Legend Double Dagger 6.7 2.8 76 31 32 24.1 99.65     LegendNANA
23:00 Legend Double Dagger 6.3 3.1 80 32 26 24.1 99.77     Cloudy

Notes on Data Quality.

Legend

  • E = Estimated
  • M = Missing
  • NA = Not Available
  • ‡ = Partner data that is not subject to review by the National Climate Archives
Date modified: